Regional Weather Roundup
Issued by NWS

Home | Current Version | Previous Version | Graphics & Text | Print | Product List | Glossary On
Versions: 1 2 3 4 5 6 7 8 9 10 11 12 13 14 15 16 17 18 19 20 21 22 23 24 25 26 27 28 29 30 31 32 33 34 35 36 37 38 39 40 41 42 43 44 45 46 47 48 49 50
857
ASUS45 KBOI 210010
RWRID

IDAHO REGIONAL WEATHER ROUNDUP
NATIONAL WEATHER SERVICE BOISE ID
500 PM MST FRI JAN 20 2017

NOTE: "FAIR" INDICATES FEW OR NO CLOUDS BELOW 12000 FEET
WITH NO SIGNIFICANT WEATHER AND/OR OBSTRUCTIONS TO VISIBILITY

IDZ012-014-210100-
SOUTHWEST IDAHO


CITY           SKY/WX    TMP DP  RH WIND       PRES   REMARKS
BOISE          CLOUDY    39  27  62 SE14      29.25S WCI  31
CALDWELL       LGT RAIN  36  29  75 SE15      29.26S WCI  27
MOUNTAIN HOME  MOCLDY    37  30  75 E17G26    29.25F WCI  27
$$

IDZ016-017-210100-
SOUTHCENTRAL IDAHO


CITY           SKY/WX    TMP DP  RH WIND       PRES   REMARKS
BURLEY         CLOUDY    35  26  69 W8        29.29F WCI  29
JEROME         MOCLDY    35  25  66 E16       29.29F WCI  25
TWIN FALLS     MOCLDY    38  21  50 VRB7      29.27F WCI  33
$$

IDZ019>023-210100-
SOUTHEAST IDAHO


CITY           SKY/WX    TMP DP  RH WIND       PRES   REMARKS
IDAHO FALLS    PTCLDY    22  22 100 VRB5      29.41F WCI  16
POCATELLO      PTCLDY    34  25  69 SE20      29.37F WCI  23
REXBURG        PTCLDY    27  23  85 E5        29.41F WCI  22
$$

IDZ006-010-011-018-031-032-210100-
CENTRAL IDAHO MOUNTAINS


CITY           SKY/WX    TMP DP  RH WIND       PRES   REMARKS
MCCALL         PTCLDY    31  21  66 SE3       29.20F
HAILEY         CLOUDY    30  23  74 CALM      29.34F
STANLEY          N/A     26  17  68 S9G17     29.25F WCI  17
SALMON         CLOUDY    19  18  93 SE3       29.37F
CHALLIS        MOCLDY    13  12  96 CALM      29.34F
$$

IDZ002-004-006-007-026-210100-
NORTHERN IDAHO


CITY           SKY/WX    TMP DP  RH WIND       PRES   REMARKS
LEWISTON       CLOUDY    39  31  72 E3        29.23F
LOWELL           N/A     35  33  92 N5        29.29S WCI  31
COEUR D`ALENE  CLEAR     39  32  76 N12       29.25F WCI  32
MULLAN PASS    PTCLDY    26  22  84 SE6       29.24S WCI  19
$$




USA.gov is the U.S. government's official web portal to all federal, state and local government web resources and services.